Stations météo

Publicité
Rennes, France (7130): Température de l'air & dewpoint: 20.03.2019 17:00:00 - 26.03.2019 17:00:00 (CET)Rennes, France (7130): Température de l'air 5cm: 20.03.2019 17:00:00 - 26.03.2019 17:00:00 (CET)Rennes, France (7130): Température de l'air -20cm & Température de l'air -100cm: 20.03.2019 17:00:00 - 26.03.2019 17:00:00 (CET)Rennes, France (7130): Vitesse du vent & gusts: 20.03.2019 17:00:00 - 26.03.2019 17:00:00 (CET)Rennes, France (7130): Direction du vent: 20.03.2019 17:00:00 - 26.03.2019 17:00:00 (CET)Rennes, France (7130): reduced air pressure: 20.03.2019 17:00:00 - 26.03.2019 17:00:00 (CET)Rennes, France (7130): visibility: 20.03.2019 17:00:00 - 26.03.2019 17:00:00 (CET)Rennes, France (7130): Ensoleillement: 20.03.2019 17:00:00 - 26.03.2019 17:00:00 (CET)Rennes, France (7130): Quantités de précipitations: 20.03.2019 17:00:00 - 26.03.2019 17:00:00 (CET)
Date & Time tt [°C] td [°C] tt 5cm [°C] tt -20cm [°C] tt -100cm [°C] ff [km/h] ff [knt] fx [km/h] fx [knt] dd ppp [hPa] vv [km] sd [min] rr [mm]
26.03.2019 17:00:00 - - - - - - - - - - - - - -
26.03.2019 16:00:00 13,7 2,9 20,9 9,1 9,9 16 9 30 16 N 1033,5 20 60 0,0
26.03.2019 15:00:00 14,0 2,9 21,9 9,1 9,9 17 9 36 19 N 1033,8 20 60 0,0
26.03.2019 14:00:00 13,0 3,6 21,0 9,0 9,9 13 7 26 14 N 1034,3 20 60 0,0
26.03.2019 13:00:00 12,4 2,5 19,8 8,9 9,9 15 8 26 14 N 1034,7 20 58 0,0
26.03.2019 12:00:00 11,3 4,0 17,6 8,9 9,9 11 6 25 13 N 1035,3 20 55 0,0
26.03.2019 11:00:00 9,9 4,5 20,5 8,9 9,9 6 4 13 7 ENE 1035,9 16 60 0,0
26.03.2019 10:00:00 8,4 3,8 7,4 9,0 9,9 3 1 6 4 E 1036,0 18 60 0,0
26.03.2019 09:00:00 4,3 3,3 -2,4 9,1 9,9 0 0 8 4 N 1036,0 16 60 0,0
26.03.2019 08:00:00 0,4 0,4 -5,6 9,2 9,9 4 2 7 4 NW 1036,0 8 39 0,0
26.03.2019 07:00:00 -0,1 -0,1 -6,9 9,2 9,9 6 4 8 4 WNW 1035,6 3,5 0 0,0
26.03.2019 06:00:00 0,8 0,7 -5,9 9,3 9,9 2 1 8 4 WNW 1034,9 8 0 0,0
26.03.2019 05:00:00 0,8 -0,8 -4,1 9,4 9,9 6 4 10 5 N 1035,0 17 0 0,0
26.03.2019 04:00:00 2,6 0,5 -2,7 9,4 9,9 8 4 14 7 NNE 1034,9 23 0 0,0
26.03.2019 03:00:00 2,6 0,8 -1,8 9,5 9,9 8 4 11 6 N 1035,2 25 0 0,0
26.03.2019 02:00:00 3,0 0,7 -1,3 9,5 9,9 8 4 16 8 NNE 1035,2 27 0 0,0
26.03.2019 01:00:00 3,5 0,7 -1,2 9,6 9,9 11 6 16 9 NNE 1035,0 30 0 0,0
26.03.2019 00:00:00 4,6 0,9 0,8 9,6 9,9 12 7 18 10 NNE 1034,9 33 0 0,0
25.03.2019 23:00:00 5,1 1,0 1,6 9,6 9,9 11 6 21 12 NNE 1034,7 35 0 0,0
25.03.2019 22:00:00 6,3 1,0 1,6 9,6 9,9 13 7 23 12 NNE 1034,3 40 0 0,0
25.03.2019 21:00:00 7,0 0,6 2,8 9,7 9,9 11 6 25 13 NNE 1033,3 50 0 0,0
25.03.2019 20:00:00 8,2 0,2 3,8 9,6 9,9 12 7 29 16 NNE 1032,7 50 3 0,0
25.03.2019 19:00:00 10,3 0,0 7,8 9,6 9,9 17 9 39 21 NNE 1031,9 49 39 0,0
25.03.2019 18:00:00 11,6 -0,3 11,3 9,5 9,9 24 13 37 20 NNE 1031,4 28 60 0,0
25.03.2019 17:00:00 12,6 1,3 15,6 9,5 9,9 23 12 40 22 NNE 1031,2 36 60 0,0
25.03.2019 16:00:00 12,8 2,3 12,8 9,4 9,9 24 13 55 30 N 1031,3 30 47 0,0
25.03.2019 15:00:00 11,8 2,3 13,3 9,4 9,9 18 10 36 19 NNE 1031,7 43 27 0,0
25.03.2019 14:00:00 11,7 2,7 13,0 9,4 9,9 23 12 43 23 NNE 1032,0 28 8 0,0
25.03.2019 13:00:00 12,1 3,1 13,5 9,4 9,9 24 13 39 21 N 1032,0 40 22 0,0
25.03.2019 12:00:00 11,8 5,0 11,6 9,4 9,9 23 12 37 20 NNE 1032,3 19 15 0,0
25.03.2019 11:00:00 10,4 4,7 11,6 9,4 9,9 24 13 37 20 N 1032,4 20 13 0,0
25.03.2019 10:00:00 10,3 6,4 8,9 9,5 9,9 20 11 34 19 N 1032,1 21 37 0,0
25.03.2019 09:00:00 7,2 7,2 -0,9 9,5 9,9 6 3 11 6 NNW 1031,8 18 57 0,0
25.03.2019 08:00:00 3,5 3,5 -3,4 9,6 9,9 2 1 8 5 WSW 1031,7 9 35 0,0
25.03.2019 07:00:00 2,2 2,2 -4,3 9,7 9,9 8 4 11 6 WNW 1031,1 7 0 0,0
25.03.2019 06:00:00 2,9 2,9 -3,6 9,7 9,9 4 2 6 3 W 1030,7 1,0 0 0,0
25.03.2019 05:00:00 2,5 2,5 -2,6 9,8 9,9 3 2 10 5 W 1030,8 0,1 0 0,0
25.03.2019 04:00:00 2,3 2,3 -1,6 9,8 9,9 9 5 13 7 WNW 1030,9 0,1 0 0,0
25.03.2019 03:00:00 3,2 3,2 -2,0 9,9 9,9 9 5 14 8 NW 1031,0 0,6 0 0,0
25.03.2019 02:00:00 3,3 3,3 -2,5 10,0 9,9 8 5 13 7 NW 1031,2 0,8 0 0,0
25.03.2019 01:00:00 4,2 4,1 -2,6 10,0 9,8 2 1 14 8 NNW 1031,5 1,4 0 0,0
25.03.2019 00:00:00 4,2 3,9 -2,7 10,1 9,8 7 4 10 6 NNW 1031,5 12 0 0,0
24.03.2019 23:00:00 5,1 4,4 -1,8 10,2 9,9 4 2 9 5 NW 1031,6 11 0 0,0
24.03.2019 22:00:00 5,5 4,0 -1,1 10,2 9,8 4 2 10 6 WNW 1031,3 15 0 0,0
24.03.2019 21:00:00 7,4 4,7 2,9 10,2 9,9 6 4 20 11 N 1031,1 20 0 0,0
24.03.2019 20:00:00 8,5 5,1 5,5 10,2 9,9 11 6 28 15 N 1030,8 19 0 0,0
24.03.2019 19:00:00 10,8 5,5 9,2 10,1 9,8 18 10 35 19 N 1030,5 23 56 0,0
24.03.2019 18:00:00 12,7 4,9 11,1 10,1 9,9 19 11 35 19 N 1029,7 34 40 0,0
24.03.2019 17:00:00 11,9 5,7 11,1 10,1 9,9 18 10 31 17 N 1029,8 50 0 0,0
24.03.2019 16:00:00 11,5 6,4 11,5 10,1 9,9 21 11 33 18 N 1030,0 41 7 0,0
24.03.2019 15:00:00 12,3 6,6 12,9 10,0 9,8 18 10 29 16 NNE 1030,1 20 0 0,0
24.03.2019 14:00:00 11,7 7,0 13,0 10,0 9,8 17 9 28 15 NNE 1030,3 14 0 0,0
24.03.2019 13:00:00 11,4 7,5 13,3 10,0 9,8 15 8 28 15 NNE 1030,4 10 0 0,0
24.03.2019 12:00:00 10,9 8,5 12,5 10,0 9,8 16 9 25 13 N 1030,8 6 0 0,0
24.03.2019 11:00:00 10,5 8,6 11,7 10,0 9,8 13 7 24 13 N 1030,7 4,3 0 0,0
24.03.2019 10:00:00 10,2 8,1 10,4 10,0 9,8 16 9 21 11 N 1030,5 4,2 30 0,0
24.03.2019 09:00:00 8,1 8,0 5,4 10,1 9,8 6 3 8 5 W 1029,9 3,3 46 0,0
24.03.2019 08:00:00 6,3 6,3 4,0 10,1 9,8 5 3 8 4 W 1029,5 2,4 0 0,0
24.03.2019 07:00:00 5,1 5,1 2,2 10,2 9,8 5 3 6 3 WNW 1029,5 1,9 0 0,0
24.03.2019 06:00:00 5,2 5,2 3,6 10,3 9,8 5 3 9 5 WNW 1029,5 2,1 0 0,0
24.03.2019 05:00:00 4,5 4,5 -1,1 10,3 9,8 6 3 11 6 W 1029,2 2,1 0 0,0
24.03.2019 04:00:00 4,0 3,9 -1,8 10,4 9,8 8 4 12 6 NNE 1029,2 2,6 0 0,0
24.03.2019 03:00:00 4,9 4,2 -1,5 10,5 9,8 8 4 10 5 N 1029,1 3,8 0 0,0
24.03.2019 02:00:00 5,3 4,3 -0,6 10,5 9,8 8 4 10 5 N 1029,3 5 0 0,0
24.03.2019 01:00:00 6,9 4,9 -0,7 10,5 9,8 7 4 10 6 N 1029,2 7 0 0,0
24.03.2019 00:00:00 8,0 4,9 1,6 10,6 9,8 5 3 11 6 NE 1029,3 10 0 0,0
23.03.2019 23:00:00 8,9 5,6 5,3 10,6 9,8 8 4 18 10 ENE 1029,6 11 0 0,0
23.03.2019 22:00:00 9,6 5,9 6,4 10,6 9,8 13 7 24 13 ENE 1029,6 11 0 0,0
23.03.2019 21:00:00 11,5 6,4 8,8 10,5 9,8 19 10 33 18 ENE 1029,1 15 0 0,0
23.03.2019 20:00:00 12,9 7,1 7,4 10,5 9,8 18 10 25 13 NE 1028,6 16 0 0,0
23.03.2019 19:00:00 13,6 6,9 10,5 10,4 9,8 11 6 22 12 NE 1028,3 18 34 0,0
23.03.2019 18:00:00 15,7 5,9 14,5 10,4 9,8 8 4 17 9 NE 1028,2 17 50 0,0
23.03.2019 17:00:00 15,5 6,8 16,1 10,2 9,8 13 7 23 12 NE 1028,3 14 26 0,0
23.03.2019 16:00:00 16,7 8,1 15,7 10,1 9,8 11 6 20 11 NNE 1028,6 12 27 0,0
23.03.2019 15:00:00 17,5 6,4 24,3 10,0 9,8 4 2 23 13 SSE 1028,9 11 55 0,0
23.03.2019 14:00:00 16,3 8,5 23,7 9,9 9,7 9 5 22 12 E 1029,5 8 57 0,0
23.03.2019 13:00:00 15,1 8,6 24,3 9,9 9,7 10 6 21 12 ESE 1030,0 3,6 60 0,0
23.03.2019 12:00:00 13,9 9,5 22,1 9,9 9,7 10 5 17 9 E 1030,3 6 60 0,0
23.03.2019 11:00:00 11,5 8,2 16,3 9,8 9,7 8 4 16 8 NE 1030,6 6 60 0,0
23.03.2019 10:00:00 7,9 7,9 8,9 9,9 9,7 3 2 9 5 NW 1030,7 2,1 16 0,0
23.03.2019 09:00:00 6,6 6,6 7,1 9,9 9,8 6 3 10 5 NNW 1030,7 0,3 0 0,0
23.03.2019 08:00:00 6,2 6,2 6,1 9,9 9,7 8 4 11 6 NNE 1030,3 0,1 0 0,0
23.03.2019 07:00:00 6,1 6,1 6,3 10,0 9,7 6 3 11 6 N 1030,0 0,1 0 0,0
23.03.2019 06:00:00 6,2 6,2 6,2 10,0 9,7 6 3 10 6 N 1029,6 0,2 0 0,0
23.03.2019 05:00:00 6,1 6,1 6,0 10,0 9,7 6 3 12 6 N 1029,6 0,2 0 0,0
23.03.2019 04:00:00 6,1 6,1 6,0 10,1 9,7 7 4 11 6 N 1029,6 0,2 0 0,0
23.03.2019 03:00:00 6,3 6,3 0,0 10,1 9,7 6 4 11 6 N 1029,6 0,3 0 0,0
23.03.2019 02:00:00 3,8 3,5 -2,1 10,3 9,7 8 5 10 5 WNW 1029,8 0,4 0 0,0
23.03.2019 01:00:00 5,2 5,1 -1,7 10,3 9,7 5 3 11 6 NW 1029,4 2,7 0 0,0
23.03.2019 00:00:00 4,9 3,2 -1,1 10,3 9,7 9 5 15 8 WNW 1029,5 5 0 0,0
22.03.2019 23:00:00 8,1 4,5 -1,0 10,4 9,7 6 3 7 4 SSW 1029,2 10 0 0,0
22.03.2019 22:00:00 9,7 4,3 0,0 10,4 9,7 4 2 11 6 W 1029,1 14 0 0,0
22.03.2019 21:00:00 10,9 3,9 0,2 10,3 9,7 6 3 12 6 S 1028,4 14 0 0,0
22.03.2019 20:00:00 12,8 3,4 1,5 10,3 9,7 3 1 5 3 SSE 1028,2 17 0 0,0
22.03.2019 19:00:00 15,3 3,1 9,2 10,2 9,7 4 2 10 5 S 1027,6 20 60 0,0
22.03.2019 18:00:00 16,7 3,0 16,9 10,1 9,7 9 5 17 9 SW 1027,6 16 60 0,0
22.03.2019 17:00:00 17,6 4,2 21,0 9,9 9,7 8 4 19 11 S 1027,5 13 60 0,0
22.03.2019 16:00:00 17,5 5,4 24,7 9,8 9,7 10 5 18 10 SSW 1027,7 12 60 0,0
22.03.2019 15:00:00 17,3 2,5 26,7 9,7 9,7 5 3 14 8 SSE 1028,0 12 60 0,0
22.03.2019 14:00:00 17,0 4,0 28,1 9,6 9,7 3 1 10 5 SW 1028,8 12 60 0,0
22.03.2019 13:00:00 15,1 4,7 26,5 9,6 9,7 3 1 10 5 S 1029,1 11 60 0,0
22.03.2019 12:00:00 12,5 8,4 22,5 9,6 9,7 3 2 8 5 SSE 1029,6 9 60 0,0
22.03.2019 11:00:00 8,3 8,3 11,8 9,6 9,7 6 3 10 5 S 1030,2 3,5 41 0,0
22.03.2019 10:00:00 5,7 5,7 7,8 9,7 9,6 0 0 5 3 N 1030,0 0,2 0 0,0
22.03.2019 09:00:00 3,7 3,7 0,0 9,8 9,7 2 1 5 3 SW 1029,9 0,3 0 0,0
22.03.2019 08:00:00 0,9 0,9 -2,1 9,8 9,7 3 1 4 2 W 1029,5 0,1 0 0,0
22.03.2019 07:00:00 1,2 1,2 -3,1 9,9 9,7 3 2 5 3 W 1029,3 0,1 0 0,0
22.03.2019 06:00:00 2,0 2,0 -2,4 10,0 9,7 0 0 2 1 N 1028,9 0,1 0 0,0
22.03.2019 05:00:00 2,1 2,1 -1,7 10,0 9,6 0 0 4 2 N 1029,2 0,1 0 0,0
22.03.2019 04:00:00 3,5 3,5 -1,8 10,1 9,7 2 1 7 4 N 1029,6 0,1 0 0,0
22.03.2019 03:00:00 3,7 3,7 -1,7 10,2 9,7 5 3 7 4 NW 1030,2 0,1 0 0,0
22.03.2019 02:00:00 5,4 5,4 0,2 10,2 9,6 5 3 7 4 N 1030,5 0,1 0 0,0
22.03.2019 01:00:00 6,2 6,2 -0,3 10,3 9,6 5 3 8 4 N 1030,9 1,9 0 0,0
22.03.2019 00:00:00 6,7 6,7 0,4 10,3 9,6 5 3 7 4 N 1031,2 0,1 0 0,0
21.03.2019 23:00:00 7,2 7,2 1,7 10,3 9,6 6 3 10 5 NNW 1031,6 3,4 0 0,0
21.03.2019 22:00:00 8,5 7,4 4,7 10,4 9,6 8 4 16 9 N 1031,5 17 0 0,0
21.03.2019 21:00:00 9,2 7,5 6,3 10,3 9,6 9 5 17 9 N 1031,4 20 0 0,0
21.03.2019 20:00:00 10,1 8,2 7,7 10,3 9,6 11 6 24 13 N 1031,4 21 0 0,0
21.03.2019 19:00:00 11,8 8,5 10,3 10,2 9,6 15 8 25 13 NNE 1031,2 25 49 0,0
21.03.2019 18:00:00 13,5 8,5 12,8 10,2 9,6 16 8 27 15 N 1031,1 27 35 0,0
21.03.2019 17:00:00 13,2 8,5 12,8 10,1 9,6 17 9 25 13 N 1031,6 36 10 0,0
21.03.2019 16:00:00 15,1 8,8 15,4 10,1 9,6 15 8 25 13 NNE 1031,9 48 15 0,0
21.03.2019 15:00:00 14,1 7,6 17,0 10,0 9,6 16 9 25 13 N 1032,8 49 20 0,0
21.03.2019 14:00:00 14,0 8,2 14,9 10,0 9,6 13 7 23 12 N 1033,6 45 6 0,0
21.03.2019 13:00:00 13,2 8,1 14,3 10,0 9,6 16 8 25 13 N 1034,2 30 0 0,0
21.03.2019 12:00:00 14,6 7,6 16,3 9,9 9,6 13 7 21 11 ENE 1034,5 42 47 0,0
21.03.2019 11:00:00 12,5 8,6 14,8 9,9 9,6 10 6 19 11 NE 1034,7 35 16 0,0
21.03.2019 10:00:00 11,5 8,4 12,1 10,0 9,6 7 4 12 7 ENE 1034,9 19 0 0,0
21.03.2019 09:00:00 9,5 8,6 4,7 10,0 9,6 2 1 5 3 N 1034,8 14 37 0,0
21.03.2019 08:00:00 7,3 7,2 2,1 10,0 9,6 4 2 5 3 N 1034,6 3,7 30 0,0
21.03.2019 07:00:00 7,5 7,4 2,4 10,0 9,6 3 2 6 3 N 1034,2 17 0 0,0
21.03.2019 06:00:00 8,1 7,3 3,5 10,1 9,6 0 0 6 4 N 1034,2 32 0 0,0
21.03.2019 05:00:00 8,3 7,2 6,1 10,1 9,6 6 3 8 5 NNW 1034,0 45 0 0,0
21.03.2019 04:00:00 9,4 7,5 7,7 10,1 9,5 3 1 8 4 N 1034,2 59 0 0,0
21.03.2019 03:00:00 10,0 7,8 8,9 10,1 9,6 8 4 16 9 NE 1034,7 60 0 0,0
21.03.2019 02:00:00 10,3 7,7 9,0 10,1 9,6 3 2 13 7 NNE 1034,9 60 0 0,0
21.03.2019 01:00:00 10,6 7,8 9,5 10,1 9,6 6 4 19 10 NNE 1034,9 60 0 0,0
21.03.2019 00:00:00 10,8 8,0 9,8 10,1 9,5 9 5 16 8 NNE 1034,9 58 0 0,0
20.03.2019 23:00:00 11,1 8,0 9,9 10,1 9,5 10 5 15 8 NNE 1034,9 60 0 0,0
20.03.2019 22:00:00 11,4 7,7 10,3 10,0 9,5 9 5 19 10 NNE 1035,1 60 0 0,0
20.03.2019 21:00:00 11,7 8,4 10,1 10,0 9,5 11 6 18 10 N 1034,8 48 0 0,0
20.03.2019 20:00:00 12,5 7,8 10,5 10,0 9,5 5 3 9 5 SE 1034,2 31 0 0,0
20.03.2019 19:00:00 13,2 7,4 12,0 9,9 9,5 0 0 0 0 N 1034,2 38 0 0,0
20.03.2019 18:00:00 13,9 7,4 15,2 9,8 9,5 2 1 5 3 W 1033,7 42 0 0,0
20.03.2019 17:00:00 14,4 7,2 18,2 9,8 9,5 3 2 7 4 W 1033,8 40 0 0,0

tt = Température de l'air
td = dewpoint
tt 5cm = Température de l'air 5cm
tt -20cm = Température de l'air -20cm
tt -100cm = Température de l'air -100cm
ff = Vitesse du vent
fx = gusts
dd = Direction du vent
ppp = reduced air pressure
vv = visibility
sd = Ensoleillement
rr = Quantités de précipitations

stations d'obs. à proximité